Regional Weather Roundup
Issued by NWS

Home | Current Version | Previous Version | Graphics & Text | Print | Product List | Glossary On
Versions: 1 2 3 4 5 6 7 8 9 10 11 12 13 14 15 16 17 18 19 20 21 22 23 24 25 26 27 28 29 30 31 32 33 34 35 36 37 38 39 40 41 42 43 44 45 46 47 48 49 50
546
ASUS45 KBOU 131707
RWRCO

WEATHER ROUNDUP FOR COLORADO
NATIONAL WEATHER SERVICE DENVER/BOULDER CO
1000 AM MST SAT FEB 13 2016

NOTE: "FAIR" INDICATES FEW OR NO CLOUDS BELOW 12000 FEET WITH NO
SIGNIFICANT WEATHER AND/OR OBSTRUCTIONS TO VISIBILITY.

COZ001>005-013-030-031-131800-
...NORTHWEST COLORADO...

CITY           SKY/WX    TMP DP  RH WIND       PRES   REMARKS
CRAIG          FAIR      20  16  84 CALM      30.25F
HAYDEN         FAIR      19  14  79 CALM      30.23F
MEEKER         FAIR      25  17  72 CALM      30.24F
MOUNT WERNER   NOT AVBL
STEAMBOAT SPGS FAIR      18  14  82 NW3       30.23F
WALDEN         FAIR      37  16  41 S8        30.20F
$$

COZ006>008-011-131800-
...WEST CENTRAL VALLEYS...

CITY           SKY/WX    TMP DP  RH WIND       PRES   REMARKS
GRAND JUNCTION FAIR      32  26  78 CALM      30.28S
MONTROSE       FAIR      40  23  50 VRB5      30.29F
EAGLE          PTSUNNY   23  19  86 CALM      30.30F
RIFLE          FAIR      28  19  69 CALM      30.29F
DELTA          FAIR      38  27  63 CALM      30.28F
NUCLA          FAIR      37  27  65 CALM      30.32F
$$

COZ017>023-064>068-131800-
...SOUTHWEST COLORADO...

CITY           SKY/WX    TMP DP  RH WIND       PRES   REMARKS
DURANGO        FAIR      34  23  64 E6        30.30F WCI  29
CORTEZ         FAIR      42  25  50 SE3       30.29F
PAGOSA SPRINGS FAIR      40  21  47 CALM      30.33F
TELLURIDE      FAIR      43  11  27 CALM      30.36F
WOLF CREEK PAS FAIR      32  14  47 SW23G29   30.44F WCI  19
$$

COZ009-010-012-014-032>034-037-058>063-131800-
...CENTRAL COLORADO...

CITY           SKY/WX    TMP DP  RH WIND       PRES   REMARKS
ASPEN          FAIR      36  18  48 S3        30.25F
BUENA VISTA    FAIR      46  15  28 S5        30.20F
COPPER MTN     FAIR      34   0  23 W22G31    30.33F WCI  22
BERTHOUD PASS  FAIR      28  18  64 W49G64    30.20F WCI   9
COTTONWOOD PAS FAIR      45 -15   8 W24G47    30.24S
GUNNISON       FAIR       0 N/A N/A CALM      30.43F
KREMMLING      LGT SNOW N/A N/A N/A CALM      30.28F VSB 3/4
LEADVILLE      FAIR      39   3  22 VRB5      30.27F
MONARCH PASS   FAIR      30   7  37 W46G54    30.44S WCI  12
SALIDA         NOT AVBL
SUNLIGHT       FAIR      34  12  40 CALM        N/A
WILKERSON PASS FAIR      34   5  29 SW14G22   30.28S WCI  24
$$

COZ069>075-131800-
...SAN LUIS VALLEY/SANGRE DE CRISTO MOUNTAINS...

CITY           SKY/WX    TMP DP  RH WIND       PRES   REMARKS
ALAMOSA        FAIR      37  26  64 CALM      30.28F
LA VETA PASS   FAIR      37  18  44 S14G23    30.27F
SAGUACHE       FAIR      37  21  52 NW6       30.30F
$$

COZ035-036-038>040-131800-
...NORTHERN COLORADO FRONT RANGE...

CITY           SKY/WX    TMP DP  RH WIND       PRES   REMARKS
DENVER INTL AP PTSUNNY   33  32  96 NE6       30.04F FOG     WCI  28
DMNS CITY PARK   N/A     40  38  91 SE7       30.04F
AURORA         PTSUNNY   44  41  89 S3        30.05F
FRONT RANGE AP PTSUNNY   36  34  93 MISG      30.04F
ERIE MUNI ARPT FOG       31  31 100 NE5       30.04F VSB 1/4 WCI  26
BOULDER MUN AP FOG       32  32 100 E6        30.03F VSB<1/4 WCI  26
CENTENNIAL     PTSUNNY   52  27  38 SE3       30.05F
BROOMFIELD     PTSUNNY   39  37  93 VRB3      30.03F
FORT COLLINS   CLOUDY    28  28 100 CALM      30.07F VSB<1/4
LONGMONT       FOG       32  32  99 CALM      30.07F VSB<1/4
$$

COZ041-046-047-076>085-087-088-131800-
...PIKES PEAK/PALMER DIVIDE AND SOUTHERN FOOTHILLS...

CITY           SKY/WX    TMP DP  RH WIND       PRES   REMARKS
COLO. SPRINGS  PTSUNNY   46  30  53 NE7       30.09F
A. F. ACADEMY  FAIR      49  21  32 VRB3      30.08F
SCHRIEVER AFB  FAIR      52  25  34 SW5       30.10F
ELLICOTT       FAIR     N/A N/A N/A CALM      30.08F
FALCON         FAIR      52  17  25 NW6       30.12F
FORT CARSON    FAIR      41  31  67 NE3       30.06F
LIMON          CLOUDY    28  28 100 S5        30.07F WCI  23
MONUMENT HILL  FAIR      45  21  39 SW15      30.12F
TRINIDAD       FAIR      67  18  15 W20       30.12F
$$

COZ042>045-048>051-090-091-131800-
...NORTHEAST COLORADO...

CITY           SKY/WX    TMP DP  RH WIND       PRES   REMARKS
GREELEY ARPT   CLOUDY    30  28  93 CALM      30.08F
AKRON          PTSUNNY   31  30  96 SW9       30.06F WCI  23
BURLINGTON     FOG       27  25  92 S17       30.13F VSB 1   WCI  14
WRAY           CLOUDY    29  29 100 S15       30.14F WCI  18
STERLING       CLOUDY    32  32 100 SW10      30.07F WCI  24
HOLYOKE        CLOUDY    32  30  93 S14G20    30.12F FOG     WCI  22
FORT MORGAN    FOG       30  29  96 CALM      30.07F VSB 1/4
$$

COZ086-089-092>099-131800-
...SOUTHEAST COLORADO...

CITY           SKY/WX    TMP DP  RH WIND       PRES   REMARKS
PUEBLO         FOG       32  28  85 SW5       30.10F VSB 1   WCI  27
LA JUNTA       CLOUDY    32  28  85 CALM      30.12F FOG
LAMAR          CLOUDY    30  28  92 VRB3      30.14F FOG
SPRINGFIELD      N/A     46  30  53 VRB3      30.10F
$$




USA.gov is the U.S. government's official web portal to all federal, state and local government web resources and services.